Vertical_Velocity
4 -6 2 -1 -2 7 2 3 -3 -6 5 -4 -1 -1 -14 1 3 -6 -7 -3 1 -5 13 6 1 -1 6 3 3 7 6 4 -0 4 1 0 3 0 3 -4 3 0 4 4
4 0 4 -7 -9 1 5 2 -4 -3 4 0 -2 -16 -4 -5 1 -0 3 3 -5 -0 1 3 3 3 -1 2 5 -6 -0 6 0 1 2 -4 2 6 5 4 -6 1 4 2
2 -6 0 2 5 2 2 -0 -2 -4 -1 3 -7 -22 -6 -1 -5 1 1 4 1 -0 -2 -4 -2 -2 -0 -1 5 3 6 4 4 2 -1 3 15 4 4 -4 -2 -6 -4 10
-1 -1 3 -3 -5 -1 2 -5 -3 -1 1 -2 0 -13 -6 4 -6 -0 2 -2 -1 1 1 1 2 1 3 3 -2 1 2 0 5 6 2 3 0 2 -1 0 8 7 -3 12
-2 0 -2 -1 -3 2 -6 -0 0 -1 1 0 -6 6 -17 -2 -0 -1 0 0 -3 -2 -2 -1 -0 1 1 -1 -0 -1 -2 -1 6 3 2 6 -3 5 5 -1 2 1 5 9
0 -1 3 -0 1 0 2 -2 -1 0 -2 0 2 5 -10 1 -2 -1 -7 -7 -1 -1 -1 -1 -3 1 3 3 1 4 5 0 -5 2 3 5 3 5 1 3 -1 -0 3 5
1 2 3 4 1 -1 2 -1 -3 -5 -3 -8 1 5 -16 1 -1 1 0 0 -3 -0 -2 -2 0 -0 -3 -5 -1 -1 -4 1 7 2 -6 5 3 4 6 4 5 5 -6 -1
-4 1 -2 1 -3 -4 1 -1 -3 -3 -1 -3 -0 -3 -0 -1 -1 -1 1 -4 1 -1 -2 1 7 6 6 7 5 2 -3 -4 -0 -1 6 -2 4 5 6 3 4 -2 3 2
-2 -0 4 1 1 -1 1 -1 1 -2 1 -0 -1 -3 -12 2 1 0 -1 -2 -3 0 1 -3 -3 4 3 4 4 2 -4 -3 -6 -2 0 -2 6 9 5 -2 2 -0 2 5
0 -5 5 1 2 0 1 1 -3 -1 -3 -1 -4 -4 -10 1 2 6 3 -0 2 1 1 1 2 -0 1 0 -2 1 2 -0 -4 -7 -4 -2 7 1 6 -2 3 3 5 -0
2 2 2 2 -4 -5 -2 -3 -0 0 -2 -3 -1 -12 -2 0 1 -1 4 5 -1 -5 -6 -5 2 -6 1 2 -1 -2 -4 -5 -7 -5 -8 5 -4 -3 9 8 0 3 5 2
-1 -1 -2 -8 2 1 5 -0 -0 -1 0 1 1 -29 5 2 -2 9 -3 -10 -11 -5 -10 -3 -0 1 5 -2 -11 6 -6 -3 -5 -3 -4 7 7 -7 5 11 3 3 2 3
-4 -0 -1 1 -0 -1 -2 -4 3 2 1 -6 0 -21 -1 1 -3 -7 -7 -4 -5 -6 -10 -7 2 1 6 3 -1 2 -0 -4 -3 -1 1 10 9 2 -4 10 11 -1 2 5
-1 -1 1 -5 -0 2 -1 -0 1 3 1 -2 -18 -24 6 5 -3 -6 -8 -4 -2 -3 -4 -1 2 1 -4 6 -6 -1 -2 2 -6 -4 4 2 8 11 -1 11 7 1 -2 2
-1 -1 1 1 -1 -2 -1 -1 -0 -4 -3 2 -10 -7 1 -8 -1 -6 1 1 -2 -6 -1 2 2 -6 1 5 -2 -8 -3 -3 -10 -3 12 10 6 4 -11 9 1 0 0 2
-2 -1 -2 -4 0 -1 -3 1 2 3 1 -7 6 -20 4 -3 12 6 -0 -1 0 -1 -3 2 -2 -3 1 -3 -3 -2 -3 -3 2 16 17 3 7 4 13 -3 8 4 -1 6
2 -1 -0 -2 0 0 -3 -3 -2 0 -0 4 -3 0 -1 -0 1 -3 -1 0 -3 1 -1 -4 -2 -2 -3 -1 2 0 -1 -3 4 7 -1 -6 7 -10 6 6 6 -1 5 -0
-0 -0 -1 -2 2 -2 -0 -2 2 -1 4 1 0 0 4 1 -1 0 -1 1 -2 1 -2 -1 1 2 0 1 -1 -3 2 4 3 8 16 28 4 -6 4 9 3 7 8 6
-1 1 -1 -0 -1 -4 -6 -4 1 2 3 -2 -4 2 2 0 -3 3 -1 -0 -3 0 -0 -1 1 2 1 3 2 -6 -0 3 8 14 8 1 2 4 11 13 9 6 3 -8
-0 0 2 1 2 -1 -1 2 -0 1 -1 0 2 2 3 -3 -2 -1 0 -2 -2 -1 -0 3 2 1 -1 1 -1 -0 -4 -4 -0 -4 -3 7 -0 4 2 1 1 5 -5 -6
1 -0 -2 -0 -2 -9 -1 0 1 -4 -5 2 3 3 2 -5 -1 2 -2 -2 -2 0 -1 0 0 3 2 2 -1 0 -2 -2 -2 -12 -1 1 2 1 2 3 0 -0 -1 -0
-4 -2 -3 4 -2 -9 3 1 0 2 6 3 3 3 -1 -0 -3 -2 -3 -2 -1 -4 -1 0 0 -1 -3 3 -1 -2 -0 -7 -1 3 6 3 3 5 5 -0 -6 -2 -0 2
-3 -2 2 -4 -1 6 3 -4 0 -0 3 3 4 2 1 -1 -2 -2 -1 -3 -1 -1 -0 -1 -1 2 -4 -3 1 4 -3 3 3 1 -0 -2 1 0 0 2 -1 -5 -2 -3
-1 4 -5 1 7 1 -6 1 2 -0 1 1 3 3 1 1 -1 -1 -3 -3 -1 -1 -1 -2 0 1 -1 -3 -2 -1 -0 -2 -3 -1 -0 1 3 0 -1 0 -0 -2 -3 0
6 5 -1 -6 -2 -3 3 2 0 -1 0 1 2 1 3 2 1 2 1 -3 -2 -1 0 -2 -2 2 2 -1 -3 -1 -2 -2 -2 -0 -0 1 -1 -2 -3 -3 -2 1 1 -1
3 5 2 -11 9 -3 -5 -1 -1 0 -0 1 0 0 3 0 2 2 1 -1 -3 -2 -1 -0 -3 -3 -3 -3 -4 -4 -3 0 -0 -1 -1 -4 -4 -1 0 0 -0 1 0 -1
Height
3054 3057 3059 3064 3069 3074 3076 3077 3077 3078 3079 3076 3074 3070 3071 3074 3072 3072 3075 3077 3077 3079 3084 3083 3085 3088 3090 3092 3097 3100 3102 3103 3105 3106 3108 3111 3115 3117 3119 3122 3126 3128 3128 3129
3054 3055 3060 3063 3067 3072 3073 3074 3075 3075 3075 3074 3069 3064 3067 3067 3064 3066 3068 3068 3069 3070 3072 3074 3077 3079 3080 3083 3085 3089 3092 3097 3096 3099 3101 3102 3108 3110 3112 3114 3117 3121 3122 3123
3051 3055 3059 3062 3066 3069 3070 3071 3073 3074 3072 3069 3065 3058 3059 3060 3058 3058 3059 3060 3062 3063 3064 3066 3068 3070 3072 3074 3077 3079 3083 3086 3089 3090 3093 3094 3097 3099 3102 3106 3108 3111 3115 3117
3052 3056 3057 3060 3063 3067 3069 3070 3071 3072 3071 3068 3066 3057 3050 3054 3054 3054 3055 3056 3057 3057 3058 3059 3061 3061 3062 3064 3067 3069 3073 3075 3079 3082 3081 3086 3088 3088 3093 3099 3102 3104 3108 3110
3050 3052 3055 3058 3062 3065 3067 3068 3069 3069 3068 3066 3062 3063 3046 3046 3049 3050 3052 3053 3052 3052 3053 3054 3053 3054 3054 3054 3056 3059 3062 3066 3069 3071 3072 3076 3079 3082 3085 3089 3093 3097 3099 3102
3049 3052 3055 3057 3059 3062 3064 3066 3068 3068 3067 3065 3055 3057 3046 3044 3046 3048 3049 3049 3049 3048 3048 3047 3046 3047 3048 3049 3050 3052 3054 3056 3058 3061 3061 3064 3068 3071 3077 3080 3084 3088 3092 3095
3048 3052 3053 3054 3057 3060 3063 3064 3067 3070 3069 3060 3053 3053 3044 3044 3046 3046 3044 3044 3043 3043 3042 3041 3041 3041 3042 3043 3044 3045 3046 3047 3050 3051 3052 3054 3055 3061 3067 3072 3076 3080 3084 3087
3047 3051 3050 3051 3053 3057 3060 3062 3063 3066 3065 3058 3052 3045 3042 3043 3042 3042 3040 3040 3040 3038 3037 3037 3037 3037 3037 3038 3038 3037 3037 3038 3040 3041 3043 3044 3046 3050 3055 3062 3068 3072 3074 3078
3042 3047 3047 3049 3052 3055 3058 3060 3062 3062 3061 3061 3048 3041 3041 3039 3038 3037 3036 3036 3035 3034 3032 3031 3031 3031 3031 3030 3029 3027 3027 3027 3029 3032 3032 3033 3036 3040 3047 3053 3059 3061 3065 3069
3040 3045 3047 3048 3050 3053 3056 3058 3060 3060 3065 3061 3044 3041 3036 3037 3037 3036 3034 3032 3030 3026 3024 3022 3022 3023 3022 3022 3021 3020 3018 3017 3018 3019 3021 3023 3025 3032 3039 3042 3047 3051 3056 3060
3039 3041 3046 3048 3048 3049 3054 3055 3056 3057 3057 3056 3052 3038 3034 3034 3033 3032 3030 3025 3021 3016 3013 3012 3010 3011 3012 3012 3011 3010 3010 3010 3010 3010 3012 3013 3016 3021 3028 3032 3037 3043 3047 3051
3038 3039 3042 3045 3048 3049 3051 3051 3053 3054 3054 3054 3054 3035 3030 3031 3030 3028 3021 3016 3011 3006 3001 2997 2996 2997 3002 3003 3003 3003 3002 3002 3002 3003 3004 3005 3008 3012 3018 3025 3029 3035 3038 3042
3037 3039 3041 3045 3048 3045 3045 3046 3049 3052 3053 3049 3053 3029 3027 3027 3024 3019 3011 3005 2999 2992 2987 2983 2983 2987 2992 2994 2994 2996 2994 2994 2994 2994 2995 2997 2999 3004 3011 3018 3021 3026 3030 3034
3037 3038 3038 3040 3040 3040 3041 3041 3045 3048 3047 3042 3034 3023 3021 3021 3016 3010 3004 2996 2990 2984 2978 2975 2975 2979 2983 2988 2988 2988 2988 2986 2987 2988 2989 2992 2994 2998 3005 3009 3012 3018 3022 3026
3036 3036 3037 3037 3038 3038 3039 3040 3041 3041 3038 3038 3026 3026 3020 3017 3010 3003 2997 2990 2984 2978 2974 2973 2972 2974 2979 2982 2981 2981 2979 2979 2980 2982 2983 2986 2988 2992 2998 3001 3005 3011 3017 3020
3034 3035 3035 3034 3033 3034 3034 3035 3036 3036 3034 3029 3025 3020 3019 3012 3008 3001 2993 2986 2980 2975 2971 2971 2972 2974 2976 2977 2977 2973 2971 2973 2975 2976 2979 2982 2985 2988 2990 2998 3002 3008 3012 3015
3033 3034 3034 3032 3033 3033 3031 3028 3030 3030 3029 3027 3023 3019 3014 3009 3004 2997 2989 2983 2977 2972 2967 2967 2969 2972 2974 2973 2971 2969 2969 2970 2971 2974 2977 2980 2982 2988 2992 2996 2999 3002 3006 3008
3032 3034 3034 3033 3032 3033 3027 3027 3027 3026 3024 3022 3020 3017 3012 3006 3001 2995 2988 2981 2975 2969 2965 2964 2967 2969 2969 2968 2968 2967 2967 2969 2970 2971 2972 2975 2981 2986 2989 2992 2995 2998 2999 3002
3032 3032 3033 3032 3031 3027 3025 3025 3025 3023 3020 3019 3017 3014 3009 3005 3001 2996 2988 2981 2974 2969 2965 2964 2966 2967 2967 2966 2965 2966 2967 2968 2968 2969 2972 2977 2980 2984 2985 2988 2991 2993 2999 2999
3029 3031 3033 3031 3029 3025 3023 3024 3022 3020 3018 3017 3014 3011 3007 3004 3000 2995 2989 2982 2975 2970 2967 2965 2965 2966 2966 2965 2964 2965 2966 2968 2968 2970 2973 2974 2977 2981 2984 2988 2991 2994 2998 3001
3027 3027 3028 3028 3028 3023 3022 3022 3020 3020 3023 3015 3011 3008 3006 3003 3000 2995 2990 2984 2978 2973 2969 2967 2965 2964 2965 2965 2965 2967 2968 2969 2969 2973 2973 2975 2975 2983 2987 2990 2993 2996 2998 2999
3023 3023 3023 3025 3026 3023 3020 3020 3020 3019 3016 3012 3009 3006 3005 3003 3001 2996 2991 2986 2981 2976 2973 2971 2969 2969 2968 2968 2968 2970 2971 2970 2971 2972 2976 2980 2983 2988 2990 2991 2993 2995 2994 2995
3022 3021 3020 3021 3018 3018 3018 3018 3016 3015 3013 3009 3007 3005 3004 3002 3001 2997 2994 2990 2987 2983 2979 2975 2972 2971 2971 2971 2972 2974 2976 2977 2979 2980 2982 2986 2988 2991 2991 2993 2994 2995 2995 2995
3017 3017 3016 3017 3015 3014 3014 3014 3014 3012 3011 3008 3005 3003 3002 3001 3000 2998 2996 2994 2991 2989 2986 2983 2981 2980 2979 2979 2980 2982 2982 2982 2983 2986 2987 2990 2991 2990 2992 2993 2994 2993 2993 2992
3015 3014 3012 3011 3011 3011 3011 3010 3010 3009 3008 3006 3003 3000 2999 2999 2999 2998 2996 2995 2993 2992 2990 2988 2987 2986 2986 2985 2984 2985 2985 2986 2987 2989 2990 2992 2991 2991 2992 2991 2991 2992 2991 2990
3007 3006 3007 3006 3009 3006 3007 3006 3006 3005 3004 3002 3001 2999 2997 2997 2997 2996 2995 2994 2993 2993 2993 2992 2991 2990 2989 2988 2988 2988 2988 2989 2990 2990 2991 2990 2990 2990 2991 2992 2991 2989 2987 2986